Location: Lafig�re
(44.4503°N, 4.0357°E)
Time: 16:07:53
(UTC+00:00)

Cosmos 1269 Rocket - Pass Details

Date: 24 September 2020
Orbit: 772 x 780 km, 74.1° (Epoch: 25 October)

Event Time Altitude Azimuth Distance (km) Brightness Sun altitude
Rises 19:29:53 0° 339° (NNW) 3,273 7.9 -20.6°
Reaches altitude 10° 19:32:17 10° 340° (NNW) 2,342 7.0 -21.0°
Maximum altitude 19:37:37 87° 71° (ENE) 787 3.9 -21.9°
Enters shadow 19:39:33 41° 158° (SSE) 1,121 4.5 -22.2°
